Gunter

United States     37˚28′00″N   118˚16′08″W
temp.,
°C
wind,
m/s
gust,
m/s
humid.,
%
clouds,
%
prec.,
mm/h
press.,
hPa
HPBL,
m
28 november, sat
sat2801:00−2˚n00430 0.0 102422
04:00−2˚sse11410 0.0 102422
07:00−3˚sw00440 0.0 102422
10:00+5˚wsw11230 0.0 1025165
13:00+8˚sw11200 0.0 1021396
16:00+5˚wnw01300 0.0 102122
19:00+1˚n11380 0.0 102222
22:00nne00380 0.0 102322
29 november, sun
sun2901:00−1˚nne11370 0.0 102322
04:00−2˚nne01430 0.0 102422
07:00−2˚se01440 0.0 102522
10:00+6˚s22210 0.0 1025344
13:00+7˚s232129 0.0 1022495
16:00+5˚se222715 0.0 1021139
19:00+1˚sse113685 0.0 102322
22:00sse013792 0.0 102422
30 november, mon
mon3001:00w0137100 0.0 102322
04:00−1˚nw0136100 0.0 102422
07:00−2˚sse013456 0.0 102422
10:00+6˚w111728 0.0 1024219
13:00+8˚w12128 0.0 1022609
16:00+6˚w01204 0.0 102122
19:00+3˚nnw23230 0.0 102322
22:00+2˚nnw22240 0.0 102322
1 december, tue
tue101:00+1˚nnw12340 0.0 102222
04:00nw12350 0.0 102222
07:00−1˚nw11370 0.0 102322
10:00+8˚wnw11170 0.0 1022201
13:00+10˚wnw12150 0.0 1019455
16:00+6˚nne12260 0.0 101963
19:00+2˚nnw11360 0.0 102122
22:00+1˚nne11370 0.0 102122
2 december, wed
wed201:00n124014 0.0 102222
04:00nnw22397 0.0 102222
07:00−1˚n12390 0.0 102322
10:00+7˚nw22220 0.0 1022180
13:00+10˚nw12200 0.0 1019397
16:00+6˚ese11300 0.0 102092
19:00+2˚ene12370 0.0 102324
22:00e12380 0.0 102626